Weather History for West Palm Beach, FL

Change the Weather History Date:

Sunday, February 10, 2013

  Actual Average Record
Temperature  
Mean Temperature 72 °F 67 °F  
Max Temperature 76 °F 76 °F 90 °F (1949)
Min Temperature 68 °F 59 °F 34 °F (1895)
Degree Days  
Heating Degree Days 0 2  
Month to date heating degree days 11 20  
Since 1 July heating degree days 59 177  
Cooling Degree Days 7 4  
Month to date cooling degree days 35 40  
Year to date cooling degree days 256 148  
Growing Degree Days 22 (Base 50)    
Moisture  
Dew Point 60 °F    
Average Humidity 65    
Maximum Humidity 73    
Minimum Humidity 57    
Precipitation  
Precipitation 0.06 in 0.09 in 4.97 in (2002)
Month to date precipitation 0.06 0.94  
Year to date precipitation 0.85 4.07  
Snow  
Snow 0.00 in - - ()
Month to date snowfall 0.0  
Since 1 July snowfall 0.0  
Snow Depth 0.00 in    
Sea Level Pressure  
Sea Level Pressure 30.20 in    
Wind  
Wind Speed 15 mph (East)    
Max Wind Speed 22 mph    
Max Gust Speed 28 mph    
Visibility 10 miles    
Events Rain    
T = Trace of Precipitation, MM = Missing Value Source: NWS Daily Summary

Daily Weather History Graph

Daily Weather History Graph

Search for Another Location

Airport:

Trip Planner

Search our weather history database for the weather conditions in past years. The results will help you decide how hot, cold, wet, or windy it might be!

Date:

Astronomy

Feb. 10, 2013 Rise Set
Actual Time 6:59 AM EST 6:09 PM EST
Civil Twilight 6:36 AM EST 6:33 PM EST
Nautical Twilight 6:08 AM EST 7:00 PM EST
Astronomical Twilight 5:41 AM EST 7:28 PM EST
Moon 6:55 AM EST (2/10) 6:48 PM EST (2/10)
Length of Visible Light 11h 57m
Length of Day
11h 09m
New Moon, 0% of the Moon is Illuminated
Feb 10
New Moon
Feb 17
First Quarter
Feb 25
Full
Mar 4
Last Quarter
Mar 11
New

Hourly Weather History & Observations

Time (EST) Temp. Dew Point Humidity Pressure Visibility Wind Dir Wind Speed Gust Speed Precip Events Conditions
12:53 AM 71.1 °F 57.0 °F 61% 30.17 in 10.0 mi East 8.1 mph - N/A   Mostly Cloudy
1:53 AM 70.0 °F 57.9 °F 65% 30.17 in 10.0 mi East 12.7 mph - N/A   Partly Cloudy
2:53 AM 71.1 °F 61.0 °F 70% 30.16 in 10.0 mi East 13.8 mph 20.7 mph N/A   Mostly Cloudy
3:53 AM 71.1 °F 60.1 °F 68% 30.16 in 10.0 mi East 17.3 mph 24.2 mph N/A   Mostly Cloudy
4:53 AM 71.1 °F 61.0 °F 70% 30.16 in 10.0 mi East 13.8 mph - N/A   Mostly Cloudy
5:53 AM 68.0 °F 63.0 °F 84% 30.18 in 10.0 mi SE 11.5 mph - 0.00 in Rain Light Rain
6:30 AM 69.8 °F 62.6 °F 78% 30.18 in 10.0 mi East 13.8 mph - 0.02 in Rain Light Rain
6:53 AM 69.1 °F 62.1 °F 78% 30.19 in 10.0 mi East 12.7 mph - 0.06 in   Mostly Cloudy
7:53 AM 70.0 °F 61.0 °F 73% 30.21 in 10.0 mi East 13.8 mph - N/A   Mostly Cloudy
8:08 AM 71.6 °F 60.8 °F 69% 30.21 in 10.0 mi East 16.1 mph 23.0 mph N/A   Mostly Cloudy
8:53 AM 72.0 °F 61.0 °F 68% 30.22 in 10.0 mi East 18.4 mph 25.3 mph N/A   Mostly Cloudy
9:53 AM 72.0 °F 59.0 °F 64% 30.25 in 10.0 mi East 18.4 mph 26.5 mph N/A   Mostly Cloudy
10:53 AM 73.0 °F 57.0 °F 57% 30.27 in 10.0 mi East 16.1 mph - N/A   Mostly Cloudy
11:53 AM 73.9 °F 59.0 °F 59% 30.26 in 10.0 mi East 18.4 mph 24.2 mph N/A   Mostly Cloudy
12:53 PM 73.9 °F 59.0 °F 59% 30.25 in 10.0 mi East 17.3 mph - N/A   Mostly Cloudy
1:53 PM 73.0 °F 59.0 °F 61% 30.22 in 10.0 mi East 17.3 mph - N/A   Mostly Cloudy
2:53 PM 73.9 °F 57.9 °F 57% 30.20 in 10.0 mi East 17.3 mph - N/A   Mostly Cloudy
3:53 PM 73.0 °F 59.0 °F 61% 30.19 in 10.0 mi East 18.4 mph - N/A   Mostly Cloudy
4:53 PM 73.0 °F 59.0 °F 61% 30.19 in 10.0 mi ESE 16.1 mph - N/A   Mostly Cloudy
5:53 PM 73.0 °F 59.0 °F 61% 30.19 in 10.0 mi ESE 15.0 mph - N/A   Mostly Cloudy
6:53 PM 72.0 °F 59.0 °F 64% 30.19 in 10.0 mi ESE 15.0 mph - N/A   Mostly Cloudy
7:53 PM 72.0 °F 59.0 °F 64% 30.21 in 10.0 mi ESE 15.0 mph - N/A   Mostly Cloudy
8:53 PM 72.0 °F 59.0 °F 64% 30.22 in 10.0 mi ESE 15.0 mph - N/A   Mostly Cloudy
9:53 PM 71.1 °F 59.0 °F 66% 30.22 in 10.0 mi ESE 15.0 mph - N/A   Scattered Clouds
10:53 PM 72.0 °F 59.0 °F 64% 30.20 in 10.0 mi ESE 16.1 mph - N/A   Mostly Cloudy
11:53 PM 71.1 °F 60.1 °F 68% 30.20 in 10.0 mi SE 11.5 mph - N/A   Scattered Clouds